Wind_Speed
17 17 17 18 19 19 19 19 19 20 21 21 21 21 21 22 22 22 21 21 21 21 21 21 21 21 20 20 20 19 19 19 19 19 18 19 18 18 18 17 17 16 16 15 15 14 14 13 12
18 18 19 19 20 20 20 20 20 21 22 22 23 22 22 23 23 23 23 22 22 22 22 23 23 23 23 23 22 22 22 21 21 21 20 20 20 19 19 18 18 17 17 16 15 15 15 14 14
19 20 20 21 21 21 21 21 21 22 23 23 24 24 24 24 24 24 24 24 24 23 24 24 25 25 25 25 25 25 24 24 23 23 22 21 22 21 21 20 19 18 18 18 18 17 16 16 15
20 20 21 22 21 21 22 22 23 23 23 24 25 25 25 25 25 26 26 26 26 26 26 26 26 27 27 27 27 27 27 27 26 25 25 24 24 24 23 22 21 21 20 20 19 19 18 18 17
21 22 23 22 22 22 23 24 24 24 24 24 25 26 26 26 26 27 27 28 28 28 28 28 28 29 29 29 29 29 29 29 28 28 27 26 26 25 25 25 24 23 23 22 21 21 19 19 19
23 23 24 23 23 23 24 25 25 25 25 26 26 27 27 28 28 28 28 29 29 30 30 30 30 30 31 31 31 30 30 30 30 30 29 28 28 27 27 26 26 25 24 24 23 23 22 21 21
24 25 25 24 24 25 25 26 26 27 27 27 28 29 29 29 30 30 30 30 31 31 31 32 31 32 32 33 33 33 33 32 31 31 30 30 29 29 29 28 27 27 26 26 25 24 24 24 23
25 26 26 26 26 26 26 27 27 28 28 29 30 30 30 31 31 31 31 32 32 32 33 33 33 33 33 34 34 34 34 34 35 34 33 33 32 31 31 30 30 29 29 28 27 27 26 25 25
26 27 26 26 27 27 28 28 28 29 29 30 30 31 31 32 32 33 33 34 34 34 35 35 35 35 34 35 35 35 36 36 37 37 36 36 35 33 32 32 31 31 31 30 30 29 28 27 27
27 28 27 27 28 28 29 29 30 30 30 31 31 32 32 32 33 33 34 34 35 36 36 37 36 36 36 36 36 37 37 38 38 38 38 37 37 36 34 33 33 33 33 32 31 31 30 29 29
29 29 28 29 29 29 30 30 31 31 31 32 32 32 32 32 33 33 34 35 35 36 37 37 37 37 37 37 38 38 38 39 39 40 40 39 39 39 37 36 35 35 34 34 33 33 32 32 31
29 29 30 30 30 30 30 30 31 32 32 33 33 33 33 33 33 33 34 35 35 36 37 37 38 38 38 38 39 39 39 40 40 41 41 41 41 40 40 38 37 37 36 36 35 35 34 34 34
29 29 30 30 30 30 30 30 31 31 32 33 34 34 34 34 33 34 34 35 35 36 36 37 37 38 38 39 40 40 40 41 41 42 42 43 42 41 41 40 39 38 37 37 37 37 36 35 35
30 30 31 31 31 31 31 31 31 30 32 32 33 34 34 34 34 34 35 36 36 36 37 38 38 38 39 40 41 41 42 42 42 43 43 43 44 43 42 42 41 40 39 39 39 39 38 37 37
31 32 32 32 32 32 33 33 32 32 32 33 33 34 34 35 35 35 36 37 38 38 39 39 39 39 39 40 41 42 43 44 43 44 45 45 45 45 44 44 44 43 42 41 41 41 40 39 39
32 33 33 32 33 33 34 34 33 33 33 34 34 34 34 35 35 36 37 37 38 39 39 40 40 39 40 41 42 42 43 44 45 45 45 46 47 47 47 46 46 46 45 45 44 43 42 41 41
33 33 33 33 33 34 35 35 34 34 35 35 35 35 35 35 36 37 37 38 39 39 40 40 40 40 40 41 41 42 43 44 44 45 46 47 48 49 49 48 48 48 48 47 47 46 45 44 43
34 34 34 34 34 34 35 35 35 36 36 36 36 36 36 36 36 37 38 38 39 40 40 40 40 40 39 40 40 40 42 43 44 45 46 47 48 49 50 50 50 50 50 49 48 48 47 46 45
35 35 35 35 35 35 35 35 35 36 36 37 38 38 38 37 38 38 38 39 40 40 41 40 40 39 39 40 41 41 41 43 44 45 46 48 49 50 51 52 52 51 51 51 49 49 49 48 47
35 36 36 37 36 37 36 36 36 36 36 37 38 38 38 39 39 39 39 40 40 41 41 41 40 40 40 41 42 43 43 43 45 46 47 48 50 50 51 52 54 53 53 53 52 51 50 49 49
36 36 37 37 37 38 39 38 37 36 36 36 37 38 39 39 40 40 40 41 41 41 41 42 41 42 42 41 42 43 43 43 44 46 48 49 50 51 51 52 53 54 54 53 54 53 52 51 50
36 36 37 37 38 38 39 41 39 37 37 37 37 37 38 39 40 40 41 41 41 41 41 42 42 42 42 42 42 42 43 44 44 46 47 48 49 50 52 52 53 54 55 54 54 54 54 53 52
37 37 38 38 39 39 39 41 40 39 38 37 37 37 38 38 39 40 40 40 40 41 41 41 42 41 42 43 42 42 43 44 44 45 45 46 48 49 49 51 52 53 54 55 55 55 55 54 53
37 38 38 39 40 41 39 40 41 39 38 37 37 37 38 38 38 38 39 39 40 41 41 41 41 41 42 42 42 43 43 44 44 45 45 46 47 48 49 49 50 52 53 54 55 56 56 55 55
36 36 38 39 40 41 39 40 40 38 37 37 37 38 38 38 38 38 38 39 39 40 41 41 41 42 42 43 43 44 44 44 44 45 45 46 46 47 49 49 50 52 53 54 55 55 56 56 55
35 35 36 38 40 40 39 39 38 37 37 37 38 38 38 38 38 38 38 38 39 39 40 40 41 42 42 43 43 44 44 44 44 45 46 46 46 47 48 49 50 52 53 53 54 55 55 56 56
34 34 35 36 38 39 39 39 38 36 37 37 37 37 37 37 37 37 37 38 38 39 40 40 41 42 42 42 43 44 45 45 45 45 45 46 46 46 48 50 50 51 52 53 53 53 54 54 54
34 33 32 32 34 37 38 37 36 35 35 35 35 35 36 36 36 36 37 37 37 38 39 40 41 41 42 43 44 44 45 45 45 46 46 46 45 47 47 49 50 50 52 53 53 53 54 54 54
32 31 32 33 34 35 36 36 35 34 34 34 34 34 34 34 34 34 35 36 37 37 38 40 41 42 43 43 44 45 45 45 46 46 46 46 46 46 47 48 49 50 50 52 53 54 55 55 54
32 32 32 32 34 35 35 35 34 34 34 34 34 35 35 34 33 34 34 35 36 37 38 38 39 40 42 43 44 45 45 46 46 46 45 45 45 45 46 47 48 49 50 51 52 53 54 54 54
Wind_Direction
258 260 262 263 264 264 264 265 263 261 260 259 257 256 255 254 254 255 253 251 248 247 247 248 248 247 247 246 246 246 245 244 242 241 240 239 238 237 238 237 237 236 236 237 237 237 235 232 230
260 261 262 264 265 266 267 266 265 262 261 259 258 257 256 255 255 255 253 252 250 249 248 249 249 249 248 247 246 247 246 245 244 243 242 240 239 239 239 239 239 238 237 237 237 237 237 235 234
263 263 264 265 267 268 269 268 267 265 262 261 260 259 258 258 256 254 253 252 251 250 250 251 251 250 250 249 247 247 247 246 244 243 243 243 241 240 240 239 239 238 238 238 237 238 238 236 235
266 266 266 267 269 270 270 270 269 267 265 263 261 260 260 259 257 256 254 253 251 251 252 252 252 252 251 251 250 248 247 247 245 244 243 243 243 242 241 240 240 241 242 242 238 238 237 237 236
267 268 269 270 271 271 271 272 271 269 266 264 263 262 260 260 259 258 256 254 253 252 252 252 252 251 251 251 249 247 246 246 246 245 244 244 243 243 243 242 241 242 243 243 241 239 239 239 237
269 269 270 271 272 272 272 272 270 269 268 266 264 262 261 260 260 259 258 257 255 255 254 253 252 252 251 249 248 247 247 245 245 244 243 244 243 242 243 243 242 242 242 243 242 240 238 239 239
270 270 271 272 272 272 272 270 269 268 267 265 264 262 261 261 261 260 260 259 258 256 255 253 253 252 251 250 249 248 248 246 244 243 243 243 243 243 243 243 244 243 243 243 243 241 239 239 238
272 271 271 272 272 272 272 270 269 268 266 265 264 263 262 262 262 262 261 260 259 258 256 254 253 252 251 250 250 249 248 247 247 246 244 244 243 244 244 243 244 245 244 244 243 242 241 240 239
273 273 273 274 273 272 272 270 269 268 267 266 265 265 263 262 262 262 261 260 259 258 257 255 254 253 252 252 251 250 248 248 248 248 247 247 245 244 244 245 245 245 245 244 243 242 242 241 241
274 275 276 276 275 274 272 270 268 267 267 267 266 266 264 263 262 262 262 261 259 257 256 255 254 253 253 252 251 251 249 248 248 248 247 246 245 245 245 245 244 245 246 245 244 243 242 242 243
276 277 277 277 276 275 273 270 268 267 267 267 266 265 264 263 263 263 263 262 259 257 256 255 254 253 252 251 251 250 250 249 249 248 248 246 246 245 245 245 244 245 245 244 244 244 242 243 243
277 277 277 276 275 275 274 271 269 268 267 266 266 265 264 263 264 265 264 262 259 257 256 256 255 254 253 252 252 251 249 249 247 247 248 248 246 246 246 245 244 245 245 244 243 243 242 242 242
277 277 276 276 274 274 273 272 270 269 268 266 266 265 264 264 264 265 264 262 259 257 257 257 257 256 255 253 252 253 251 249 247 247 248 248 246 246 246 245 244 244 244 244 244 243 242 242 243
277 277 276 275 274 273 272 271 270 270 269 268 267 266 264 264 264 264 263 262 261 259 259 258 258 258 256 255 254 253 251 251 249 248 248 248 247 246 246 246 245 244 244 245 244 243 243 242 243
278 277 276 275 274 273 272 270 270 270 269 268 267 266 265 264 264 264 263 262 261 260 260 259 259 258 257 256 255 254 252 251 250 250 250 249 248 247 247 247 245 245 245 244 245 244 244 244 244
278 278 277 276 275 273 272 271 271 269 269 268 268 267 266 265 265 264 264 262 262 262 261 261 259 258 258 257 256 254 253 252 252 251 250 248 247 248 248 247 247 246 246 245 244 245 244 245 245
278 279 278 277 275 273 271 270 270 269 269 268 267 266 266 266 266 266 265 263 262 262 262 262 261 260 259 259 257 255 253 253 253 253 251 249 248 248 247 247 247 247 246 245 245 244 243 244 245
280 279 278 277 275 273 272 271 271 270 268 267 266 266 266 267 267 267 266 264 262 262 262 262 263 262 261 259 259 257 255 253 253 253 252 250 249 248 248 248 247 247 245 245 245 244 244 245 246
280 279 278 277 276 274 273 272 272 271 269 268 267 266 266 267 268 268 267 266 263 262 263 262 262 261 260 259 259 258 256 254 253 253 251 250 250 249 249 248 247 246 245 245 245 245 244 244 245
281 280 280 278 277 275 273 272 272 272 271 269 267 266 266 267 267 268 268 267 265 263 262 261 261 260 260 260 259 257 257 256 255 253 252 251 251 251 250 249 247 247 246 245 244 245 245 244 244
281 281 281 280 278 276 275 272 272 272 271 270 269 268 267 267 267 268 268 267 266 263 262 261 260 261 260 259 258 258 257 257 256 255 253 253 252 251 250 248 246 246 245 244 244 244 244 244 244
282 281 280 280 279 278 276 275 272 272 271 270 270 269 268 268 268 268 268 266 264 264 262 262 262 261 261 260 259 257 256 256 256 255 255 254 254 254 252 250 247 245 245 244 243 243 243 244 244
281 281 280 279 279 278 278 277 274 273 271 270 269 269 269 269 269 269 268 266 264 263 262 262 262 261 261 260 260 258 257 257 256 256 256 256 255 254 252 251 248 246 245 244 243 243 242 243 244
282 282 281 280 280 279 280 279 276 274 273 271 270 269 269 270 269 270 269 266 264 262 262 262 262 261 261 261 260 260 260 259 258 257 257 258 256 255 253 251 250 247 245 244 243 243 242 243 244
283 284 285 284 282 282 282 280 278 277 275 273 271 271 270 270 270 270 269 267 265 264 263 262 262 262 261 261 262 262 261 260 259 259 258 258 257 256 254 252 251 249 246 244 243 243 243 243 243
285 285 285 286 286 284 283 280 279 279 277 275 273 271 271 271 271 270 269 268 266 265 264 263 263 263 263 262 262 262 262 261 260 259 258 259 258 257 255 253 251 249 247 246 244 244 243 243 242
285 285 286 286 286 285 284 282 280 279 278 277 274 273 272 271 271 270 270 269 267 266 265 265 264 264 264 263 263 262 262 262 261 259 258 258 257 256 255 253 251 249 247 246 245 244 243 242 242
286 286 288 287 288 288 286 284 283 281 280 277 276 275 273 272 271 270 269 269 268 267 266 266 266 266 265 264 264 263 262 261 260 259 258 257 256 256 255 253 251 249 248 247 245 244 243 242 241
288 286 285 285 285 286 287 285 285 284 282 280 277 275 273 272 271 270 268 268 268 268 267 267 267 266 266 266 265 264 263 262 260 260 259 258 257 256 255 253 251 249 248 246 245 244 242 241 240
287 285 284 286 287 285 285 284 284 283 281 279 278 275 273 271 270 269 268 268 268 269 268 268 268 268 267 267 266 264 263 262 261 259 259 258 256 255 253 252 251 249 247 246 244 243 242 241 240
Height
5815 5815 5815 5816 5816 5816 5815 5816 5815 5815 5815 5815 5815 5815 5815 5816 5817 5819 5818 5817 5818 5818 5819 5820 5821 5822 5822 5823 5824 5825 5826 5826 5827 5828 5829 5830 5831 5832 5833 5834 5835 5836 5836 5837 5838 5838 5839 5840 5841
5811 5811 5812 5812 5811 5811 5811 5811 5811 5810 5810 5810 5810 5810 5810 5810 5811 5811 5811 5812 5813 5814 5815 5816 5816 5817 5818 5819 5820 5821 5822 5823 5823 5824 5825 5826 5827 5828 5829 5831 5832 5833 5834 5835 5835 5836 5837 5838 5839
5807 5807 5808 5807 5807 5807 5807 5806 5805 5804 5804 5804 5804 5804 5805 5805 5805 5805 5806 5807 5808 5809 5810 5811 5811 5812 5813 5814 5815 5816 5817 5818 5819 5820 5821 5822 5823 5824 5826 5827 5828 5829 5830 5832 5832 5833 5834 5835 5836
5803 5803 5803 5803 5802 5802 5801 5800 5799 5798 5798 5798 5798 5798 5799 5799 5799 5800 5800 5801 5802 5803 5804 5805 5806 5806 5807 5808 5809 5810 5811 5813 5814 5815 5816 5818 5819 5820 5821 5823 5824 5825 5826 5828 5829 5830 5831 5832 5833
5798 5797 5797 5797 5797 5796 5795 5794 5793 5793 5792 5792 5791 5791 5792 5792 5792 5793 5794 5794 5795 5796 5797 5798 5799 5800 5801 5802 5803 5804 5805 5807 5808 5809 5811 5812 5814 5815 5816 5818 5819 5821 5822 5823 5825 5826 5828 5829 5830
5793 5792 5792 5791 5791 5790 5789 5788 5787 5786 5786 5785 5785 5785 5785 5785 5786 5786 5787 5787 5788 5789 5790 5791 5792 5793 5794 5795 5796 5797 5799 5800 5802 5803 5805 5806 5808 5809 5811 5813 5814 5816 5817 5819 5820 5822 5823 5825 5826
5788 5786 5785 5785 5785 5784 5783 5782 5781 5780 5779 5779 5778 5778 5778 5778 5779 5779 5780 5780 5781 5782 5783 5784 5785 5786 5787 5788 5789 5790 5792 5793 5795 5796 5798 5800 5802 5803 5805 5807 5809 5811 5812 5814 5815 5817 5819 5820 5822
5781 5781 5779 5779 5778 5777 5776 5775 5774 5773 5772 5771 5771 5771 5771 5772 5771 5772 5772 5773 5773 5774 5775 5776 5777 5778 5779 5780 5781 5783 5784 5786 5787 5789 5791 5792 5794 5796 5798 5800 5803 5805 5806 5808 5810 5812 5814 5815 5817
5774 5775 5773 5772 5772 5771 5769 5767 5766 5765 5764 5764 5763 5763 5763 5763 5764 5764 5764 5765 5765 5766 5767 5768 5769 5770 5771 5772 5773 5775 5776 5777 5779 5781 5783 5785 5787 5789 5791 5794 5796 5798 5800 5802 5804 5806 5808 5810 5811
5768 5767 5767 5765 5764 5762 5761 5759 5758 5758 5757 5756 5755 5755 5755 5755 5755 5756 5756 5757 5757 5757 5758 5759 5760 5761 5762 5763 5764 5766 5767 5768 5770 5772 5774 5776 5779 5781 5783 5786 5788 5791 5793 5795 5797 5800 5802 5803 5805
5760 5760 5759 5757 5755 5754 5752 5751 5750 5749 5749 5748 5748 5747 5747 5747 5747 5747 5747 5748 5748 5748 5749 5749 5751 5751 5753 5754 5755 5756 5758 5759 5761 5763 5765 5768 5770 5772 5775 5778 5780 5783 5785 5788 5790 5792 5795 5797 5799
5752 5751 5750 5748 5746 5745 5744 5743 5741 5741 5740 5739 5739 5738 5738 5738 5739 5739 5739 5738 5738 5739 5739 5740 5741 5742 5743 5744 5745 5747 5748 5750 5751 5753 5756 5758 5761 5763 5766 5769 5772 5775 5777 5779 5782 5785 5787 5790 5792
5744 5743 5741 5740 5738 5736 5735 5734 5733 5732 5731 5730 5729 5729 5730 5730 5730 5730 5729 5729 5729 5730 5730 5731 5731 5732 5733 5734 5735 5737 5738 5740 5741 5744 5746 5748 5751 5754 5757 5760 5763 5766 5768 5771 5774 5776 5779 5782 5784
5736 5734 5733 5731 5729 5728 5727 5725 5725 5724 5722 5721 5720 5720 5720 5721 5721 5720 5720 5720 5720 5721 5721 5721 5721 5722 5723 5724 5725 5726 5727 5729 5731 5733 5735 5738 5741 5744 5747 5750 5753 5756 5759 5762 5765 5767 5770 5773 5776
5727 5726 5724 5722 5720 5719 5717 5717 5716 5715 5713 5712 5712 5711 5711 5711 5711 5711 5711 5711 5711 5711 5711 5711 5711 5712 5712 5713 5714 5715 5716 5718 5720 5722 5724 5727 5730 5733 5736 5740 5743 5746 5749 5752 5755 5758 5761 5764 5767
5718 5716 5715 5714 5711 5709 5709 5708 5707 5705 5704 5703 5703 5702 5702 5702 5701 5701 5701 5701 5701 5701 5701 5701 5701 5701 5702 5702 5702 5703 5705 5706 5708 5710 5712 5715 5718 5722 5725 5729 5732 5735 5738 5741 5745 5748 5751 5754 5757
5708 5707 5705 5704 5702 5700 5699 5698 5698 5696 5695 5694 5694 5693 5693 5692 5692 5691 5691 5690 5690 5690 5690 5690 5690 5690 5690 5690 5691 5692 5693 5694 5696 5698 5701 5703 5707 5710 5714 5717 5720 5723 5726 5730 5733 5737 5740 5744 5747
5699 5697 5696 5694 5692 5690 5689 5689 5687 5686 5685 5684 5684 5684 5683 5683 5682 5681 5680 5680 5680 5680 5679 5679 5679 5679 5680 5680 5680 5681 5682 5683 5685 5687 5689 5692 5694 5698 5701 5705 5708 5711 5714 5718 5722 5726 5729 5733 5737
5689 5687 5685 5684 5682 5681 5680 5679 5678 5676 5675 5674 5673 5673 5673 5673 5671 5671 5670 5669 5669 5669 5668 5668 5668 5668 5669 5669 5669 5670 5671 5672 5674 5675 5677 5680 5682 5685 5688 5691 5695 5698 5702 5706 5710 5714 5718 5722 5725
5679 5677 5676 5674 5672 5670 5669 5668 5667 5666 5665 5664 5663 5663 5662 5662 5661 5660 5659 5658 5658 5657 5657 5657 5657 5657 5657 5657 5658 5658 5659 5660 5662 5664 5665 5667 5669 5672 5675 5678 5682 5685 5689 5693 5698 5702 5706 5710 5714
5670 5668 5666 5663 5661 5659 5658 5657 5656 5655 5654 5653 5652 5652 5651 5650 5649 5648 5647 5647 5646 5646 5646 5646 5646 5645 5645 5645 5646 5646 5647 5648 5650 5651 5653 5655 5656 5659 5661 5664 5668 5672 5676 5681 5685 5690 5694 5699 5703
5660 5658 5655 5652 5650 5648 5647 5644 5645 5644 5643 5642 5641 5640 5640 5639 5638 5637 5636 5635 5635 5635 5634 5634 5634 5633 5633 5633 5633 5634 5635 5636 5637 5639 5640 5642 5644 5645 5648 5651 5654 5658 5663 5668 5672 5677 5682 5686 5690
5649 5647 5644 5642 5639 5637 5635 5632 5633 5632 5631 5631 5630 5629 5628 5627 5626 5625 5624 5624 5623 5623 5623 5622 5622 5621 5621 5621 5621 5621 5622 5623 5624 5626 5628 5629 5631 5632 5634 5637 5641 5645 5649 5654 5659 5664 5668 5673 5678
5638 5636 5633 5630 5627 5626 5625 5622 5620 5620 5620 5619 5619 5618 5617 5616 5615 5614 5613 5612 5611 5611 5611 5611 5610 5610 5609 5609 5608 5609 5609 5610 5612 5613 5615 5616 5618 5619 5621 5624 5627 5630 5635 5640 5645 5650 5655 5660 5665
5627 5625 5621 5618 5615 5614 5613 5610 5609 5609 5608 5608 5607 5606 5605 5604 5603 5602 5601 5601 5600 5600 5599 5599 5599 5598 5598 5597 5597 5597 5597 5598 5599 5600 5601 5603 5605 5606 5608 5610 5613 5617 5621 5625 5630 5635 5641 5646 5651
5616 5613 5611 5608 5605 5603 5601 5598 5599 5598 5596 5595 5595 5594 5593 5592 5592 5591 5590 5590 5589 5588 5588 5588 5587 5587 5586 5586 5585 5585 5585 5585 5586 5587 5589 5590 5591 5593 5594 5597 5600 5603 5607 5611 5616 5621 5626 5631 5637
5604 5602 5600 5597 5593 5591 5589 5588 5588 5586 5585 5584 5583 5582 5582 5581 5580 5580 5579 5578 5578 5577 5576 5576 5576 5575 5574 5574 5573 5573 5572 5572 5573 5574 5575 5577 5578 5579 5581 5583 5586 5589 5592 5596 5601 5606 5612 5617 5622
5594 5592 5590 5586 5583 5580 5579 5577 5576 5575 5574 5573 5572 5571 5571 5570 5569 5568 5568 5567 5566 5566 5565 5564 5563 5563 5562 5561 5561 5560 5560 5560 5560 5560 5562 5563 5564 5566 5567 5569 5571 5574 5578 5582 5587 5592 5597 5603 5608
5585 5583 5579 5576 5574 5571 5568 5569 5566 5564 5563 5562 5561 5560 5560 5559 5558 5557 5557 5556 5555 5554 5553 5552 5551 5551 5550 5549 5548 5547 5547 5546 5546 5547 5548 5549 5551 5552 5553 5555 5557 5560 5564 5568 5572 5577 5582 5588 5594
5575 5573 5570 5568 5565 5561 5559 5561 5556 5554 5552 5551 5550 5549 5549 5548 5548 5547 5546 5545 5544 5543 5542 5541 5539 5538 5537 5536 5535 5534 5533 5533 5533 5533 5534 5535 5537 5538 5540 5541 5544 5547 5550 5554 5559 5563 5568 5574 5580